Stations météo

Publicité
Beauvais, France (7055): Température de l'air & dewpoint: 13.04.2019 04:00:00 - 19.04.2019 04:00:00 (CEST)Beauvais, France (7055): Température de l'air 5cm: 13.04.2019 04:00:00 - 19.04.2019 04:00:00 (CEST)Beauvais, France (7055): Température de l'air -20cm & Température de l'air -100cm: 13.04.2019 04:00:00 - 19.04.2019 04:00:00 (CEST)Beauvais, France (7055): Vitesse du vent & gusts: 13.04.2019 04:00:00 - 19.04.2019 04:00:00 (CEST)Beauvais, France (7055): Direction du vent: 13.04.2019 04:00:00 - 19.04.2019 04:00:00 (CEST)Beauvais, France (7055): reduced air pressure: 13.04.2019 04:00:00 - 19.04.2019 04:00:00 (CEST)Beauvais, France (7055): visibility: 13.04.2019 04:00:00 - 19.04.2019 04:00:00 (CEST)Beauvais, France (7055): Ensoleillement: 13.04.2019 04:00:00 - 19.04.2019 04:00:00 (CEST)Beauvais, France (7055): Quantités de précipitations: 13.04.2019 04:00:00 - 19.04.2019 04:00:00 (CEST)
Date & Time tt [°C] td [°C] tt 5cm [°C] tt -20cm [°C] tt -100cm [°C] ff [km/h] ff [knt] fx [km/h] fx [knt] dd ppp [hPa] vv [km] sd [min] rr [mm]
19.04.2019 04:00:00 7,7 3,7 1,8 10,8 9,9 4 2 8 5 NNW 1023,1 22 0 0,0
19.04.2019 03:00:00 8,4 4,8 2,3 10,8 9,9 6 4 11 6 NNW 1023,1 22 0 0,0
19.04.2019 02:00:00 9,4 4,6 3,5 10,7 9,9 4 2 8 5 N 1023,0 21 0 0,0
19.04.2019 01:00:00 10,3 5,3 3,4 10,7 9,9 2 1 8 5 NNW 1022,8 22 0 0,0
19.04.2019 00:00:00 10,5 5,5 5,0 10,6 9,8 3 1 24 13 NNE 1022,6 24 0 0,0
18.04.2019 23:00:00 12,0 5,8 8,8 10,6 9,9 15 8 27 15 NNE 1022,0 27 0 0,0
18.04.2019 22:00:00 13,0 6,1 10,4 10,5 9,8 16 9 24 13 NE 1021,6 30 0 0,0
18.04.2019 21:00:00 15,3 7,1 12,3 10,4 9,8 15 8 26 14 NE 1021,0 33 0 0,0
18.04.2019 20:00:00 18,2 8,2 16,9 10,3 9,8 15 8 23 12 NE 1020,3 36 21 0,0
18.04.2019 19:00:00 20,8 7,4 22,2 10,3 9,8 16 9 27 15 ENE 1019,8 34 52 0,0
18.04.2019 18:00:00 21,5 8,4 23,9 10,2 9,8 16 9 31 17 ENE 1019,6 20 52 0,0
18.04.2019 17:00:00 21,9 8,7 25,2 10,1 9,8 21 11 41 22 ENE 1019,5 20 60 0,0
18.04.2019 16:00:00 21,9 8,7 26,4 10,1 9,8 22 12 37 20 ENE 1019,5 15 60 0,0
18.04.2019 15:00:00 21,7 8,6 26,8 10,1 9,8 23 12 40 21 E 1019,5 14 60 0,0
18.04.2019 14:00:00 21,1 10,0 26,0 10,0 9,8 26 14 40 22 E 1019,5 13 60 0,0
18.04.2019 13:00:00 19,6 10,6 24,4 10,1 9,8 22 12 35 19 E 1019,8 12 60 0,0
18.04.2019 12:00:00 18,2 11,0 22,5 10,1 9,8 19 10 28 15 E 1019,8 12 60 0,0
18.04.2019 11:00:00 16,2 10,7 19,8 10,1 9,8 13 7 35 19 ENE 1020,3 8 60 0,0
18.04.2019 10:00:00 14,0 9,8 13,6 10,1 9,8 15 8 27 15 E 1020,6 8 26 0,0
18.04.2019 09:00:00 12,0 8,8 12,9 10,1 9,8 9 5 19 11 ENE 1020,7 11 56 0,0
18.04.2019 08:00:00 9,6 8,7 4,4 10,1 9,8 7 4 11 6 N 1020,4 6 24 0,0
18.04.2019 07:00:00 6,9 6,0 4,0 10,1 9,8 6 3 11 6 N 1020,2 4,5 0 0,0
18.04.2019 06:00:00 7,4 6,3 3,1 10,1 9,8 7 4 9 5 N 1020,0 5 0 0,0
18.04.2019 05:00:00 7,9 6,7 4,2 10,1 9,8 4 2 13 7 N 1020,1 7 0 0,0
18.04.2019 04:00:00 8,2 7,1 3,9 10,1 9,8 11 6 14 7 NNE 1020,0 7 0 0,0
18.04.2019 03:00:00 7,9 6,2 3,5 10,1 9,7 4 2 10 5 N 1020,2 8 0 0,0
18.04.2019 02:00:00 8,3 6,6 3,4 10,1 9,7 8 4 9 5 NNE 1020,4 11 0 0,0
18.04.2019 01:00:00 8,3 6,4 4,2 10,0 9,7 4 2 16 9 SSW 1020,2 12 0 0,0
18.04.2019 00:00:00 9,4 7,0 7,8 10,0 9,7 13 7 35 19 ENE 1019,8 14 0 0,0
17.04.2019 23:00:00 10,2 7,1 8,2 10,0 9,8 14 8 24 13 ENE 1019,9 19 0 0,0
17.04.2019 22:00:00 10,5 7,0 8,8 9,9 9,8 16 8 26 14 NE 1019,8 20 0 0,0
17.04.2019 21:00:00 12,2 7,9 9,4 9,8 9,7 13 7 16 9 NE 1019,3 32 0 0,0
17.04.2019 20:00:00 14,6 7,6 13,6 9,7 9,7 12 6 20 11 E 1018,8 56 31 0,0
17.04.2019 19:00:00 16,5 6,9 17,1 9,7 9,7 18 10 25 13 ENE 1018,4 42 37 0,0
17.04.2019 18:00:00 17,0 7,6 18,7 9,6 9,7 11 6 20 11 E 1018,7 38 41 0,0
17.04.2019 17:00:00 17,4 5,7 23,6 9,6 9,7 8 4 17 9 E 1018,8 20 60 0,0
17.04.2019 16:00:00 17,0 6,8 19,6 9,6 9,7 4 2 18 10 SE 1019,2 18 40 0,0
17.04.2019 15:00:00 15,5 6,2 19,0 9,5 9,7 4 2 12 6 WNW 1019,9 23 14 0,0
17.04.2019 14:00:00 16,3 7,8 20,5 9,5 9,7 5 3 16 9 SE 1020,0 14 43 0,0
17.04.2019 13:00:00 15,0 7,3 18,4 9,5 9,7 9 5 21 11 SW 1020,3 18 34 0,0
17.04.2019 12:00:00 14,1 8,5 18,0 9,5 9,7 9 5 17 9 SSW 1020,4 19 21 0,0
17.04.2019 11:00:00 13,3 7,9 18,4 9,5 9,7 3 2 13 7 SSW 1020,4 19 49 0,0
17.04.2019 10:00:00 11,4 8,8 12,3 9,5 9,7 5 3 9 5 ESE 1020,5 7 41 0,0
17.04.2019 09:00:00 10,6 9,4 7,4 9,5 9,7 0 0 5 3 N 1020,5 4,9 60 0,0
17.04.2019 08:00:00 6,4 5,8 3,3 9,5 9,7 5 3 6 3 ESE 1020,4 0,2 22 0,0
17.04.2019 07:00:00 7,2 6,5 5,6 9,5 9,7 3 2 6 4 ESE 1019,8 2,3 0 0,0
17.04.2019 06:00:00 8,0 7,2 5,1 9,5 9,7 0 0 4 2 N 1019,6 4,2 0 0,0
17.04.2019 05:00:00 7,8 6,7 2,8 9,4 9,7 2 1 8 4 W 1019,4 5 0 0,0
17.04.2019 04:00:00 8,8 7,2 6,1 9,4 9,7 4 2 8 4 WSW 1019,2 6 0 0,0
17.04.2019 03:00:00 9,2 7,6 8,2 9,4 9,7 4 2 9 5 W 1019,4 7 0 0,0
17.04.2019 02:00:00 10,0 7,9 9,1 9,4 9,7 8 4 12 6 WSW 1019,3 9 0 0,0
17.04.2019 01:00:00 9,9 8,0 8,7 9,3 9,7 4 2 7 4 SW 1019,2 7 0 0,0
17.04.2019 00:00:00 9,8 7,9 8,7 9,3 9,7 4 2 8 4 SW 1019,0 7 0 0,0
16.04.2019 23:00:00 10,0 8,1 9,4 9,3 9,7 8 4 16 8 WNW 1019,0 7 0 0,0
16.04.2019 22:00:00 10,7 7,9 9,8 9,2 9,7 9 5 23 13 W 1018,6 10 0 0,0
16.04.2019 21:00:00 11,5 7,6 10,7 9,2 9,7 14 8 20 11 WSW 1017,9 11 0 0,0
16.04.2019 20:00:00 11,9 6,8 11,1 9,2 9,7 9 5 16 9 SSW 1017,3 16 0 0,0
16.04.2019 19:00:00 12,7 6,5 12,9 9,1 9,7 0 0 7 4 N 1016,7 19 0 0,0
16.04.2019 18:00:00 12,7 6,7 13,2 9,1 9,7 4 2 26 14 WNW 1016,4 18 0 0,0
16.04.2019 17:00:00 12,9 6,5 13,5 9,1 9,7 10 5 24 13 WNW 1016,0 16 0 0,0
16.04.2019 16:00:00 13,3 6,6 15,2 9,0 9,7 14 8 23 13 WNW 1015,7 16 0 0,0
16.04.2019 15:00:00 13,9 7,6 16,7 9,1 9,7 15 8 27 15 WNW 1015,3 15 0 0,0
16.04.2019 14:00:00 12,9 7,6 16,7 9,1 9,7 15 8 26 14 WNW 1014,8 10 0 0,0
16.04.2019 13:00:00 12,4 7,7 15,5 9,1 9,7 14 8 28 15 W 1014,7 9 0 0,0
16.04.2019 12:00:00 11,6 6,7 12,4 9,0 9,7 16 9 22 12 W 1014,7 10 0 0,0
16.04.2019 11:00:00 10,3 6,1 11,0 9,1 9,7 10 6 17 9 WSW 1014,4 12 0 0,0
16.04.2019 10:00:00 9,0 5,9 10,4 9,1 9,7 0 0 5 3 N 1014,0 8 0 0,0
16.04.2019 09:00:00 7,7 5,8 5,1 9,1 9,7 0 0 3 1 N 1013,4 8 24 0,0
16.04.2019 08:00:00 5,3 3,8 2,8 9,1 9,7 0 0 4 2 N 1013,2 9 20 0,0
16.04.2019 07:00:00 4,9 3,4 2,6 9,1 9,7 3 1 7 4 NW 1012,5 6 0 0,0
16.04.2019 06:00:00 5,4 4,0 2,2 9,1 9,8 8 4 9 5 NNE 1012,6 9 0 0,0
16.04.2019 05:00:00 6,0 4,2 3,0 9,1 9,8 5 3 6 4 N 1012,8 10 0 0,0
16.04.2019 04:00:00 5,9 3,4 2,8 9,1 9,7 5 3 10 5 NE 1012,9 11 0 0,0
16.04.2019 03:00:00 7,1 3,5 2,1 9,0 9,7 6 3 8 4 NE 1013,1 13 0 0,0
16.04.2019 02:00:00 7,7 4,1 3,4 9,0 9,8 5 3 17 9 E 1013,4 14 0 0,0
16.04.2019 01:00:00 7,5 4,4 2,5 9,0 9,8 12 7 15 8 E 1013,8 15 0 0,0
16.04.2019 00:00:00 7,0 3,4 2,7 9,0 9,8 9 5 21 11 E 1014,0 15 0 0,0
15.04.2019 23:00:00 6,9 3,5 3,9 8,9 9,8 10 6 20 11 ENE 1014,0 15 0 0,0
15.04.2019 22:00:00 7,7 3,4 5,2 8,9 9,8 11 6 24 13 ENE 1014,1 14 0 0,0
15.04.2019 21:00:00 10,0 3,5 7,6 8,8 9,8 13 7 25 14 E 1014,1 16 0 0,0
15.04.2019 20:00:00 13,4 3,7 12,6 8,8 9,8 18 10 34 18 ESE 1013,9 20 34 0,0
15.04.2019 19:00:00 14,9 4,0 15,7 8,7 9,8 18 10 29 15 E 1014,0 21 21 0,0
15.04.2019 18:00:00 14,9 3,1 16,9 8,7 9,8 20 11 34 18 ESE 1014,9 19 27 0,0
15.04.2019 17:00:00 14,9 2,1 18,4 8,6 9,8 23 12 39 21 E 1015,3 15 60 0,0
15.04.2019 16:00:00 13,8 1,7 17,3 8,6 9,8 24 13 40 22 E 1016,4 14 48 0,0
15.04.2019 15:00:00 13,3 0,6 18,1 8,6 9,8 27 15 39 21 E 1017,4 9 60 0,0
15.04.2019 14:00:00 13,0 0,7 18,0 8,7 9,8 27 15 42 23 E 1018,7 8 60 0,0
15.04.2019 13:00:00 12,2 0,9 17,5 8,7 9,8 26 14 42 23 E 1019,9 8 60 0,0
15.04.2019 12:00:00 11,0 1,8 16,5 8,7 9,8 24 13 36 19 E 1021,1 7 60 0,0
15.04.2019 11:00:00 9,5 2,6 12,4 8,8 9,8 17 9 25 13 E 1021,8 6 60 0,0
15.04.2019 10:00:00 6,4 2,1 8,9 8,8 9,8 15 8 20 11 ESE 1022,7 6 60 0,0
15.04.2019 09:00:00 3,1 1,6 -1,0 8,9 9,8 6 3 13 7 NE 1023,7 3,9 60 0,0
15.04.2019 08:00:00 -1,0 -1,7 -6,9 8,9 9,8 4 2 5 3 WNW 1024,0 2,3 18 0,0
15.04.2019 07:00:00 -1,4 -2,1 -7,3 9,0 9,8 0 0 3 2 N 1023,7 2,7 0 0,0
15.04.2019 06:00:00 -1,9 -2,6 -7,1 9,0 9,8 2 1 6 3 E 1023,6 2,7 0 0,0
15.04.2019 05:00:00 -2,5 -3,8 -6,9 9,0 9,9 2 1 5 3 N 1024,2 3,0 0 0,0
15.04.2019 04:00:00 -1,4 -2,7 -6,5 9,0 9,9 3 2 6 3 W 1024,6 3,4 0 0,0
15.04.2019 03:00:00 -1,6 -3,5 -6,1 9,1 9,9 0 0 2 1 N 1024,7 3,2 0 0,0
15.04.2019 02:00:00 -0,4 -1,8 -5,3 9,1 9,9 0 0 6 3 N 1025,0 5 0 0,0
15.04.2019 01:00:00 -0,5 -2,4 -3,3 9,0 9,9 2 1 13 7 E 1025,3 4,1 0 0,0
15.04.2019 00:00:00 1,0 -1,1 -0,6 9,0 9,9 12 6 24 13 NNE 1025,4 5 0 0,0
14.04.2019 23:00:00 1,9 -0,5 -0,7 9,0 9,9 11 6 20 11 NNE 1025,2 6 0 0,0
14.04.2019 22:00:00 2,7 -0,1 0,4 9,0 9,9 14 8 26 14 NE 1025,0 7 0 0,0
14.04.2019 21:00:00 4,5 -0,3 3,0 9,0 9,9 14 8 28 15 NE 1024,2 9 15 0,0
14.04.2019 20:00:00 7,2 -0,3 7,0 9,0 9,9 18 10 29 15 ENE 1023,9 10 24 0,0
14.04.2019 19:00:00 7,8 -0,2 7,0 8,9 9,9 14 8 36 19 NE 1023,4 12 25 0,0
14.04.2019 18:00:00 7,8 -1,7 8,6 8,9 9,9 19 11 29 16 NE 1023,2 16 32 0,0
14.04.2019 17:00:00 8,1 -2,3 10,4 8,9 9,9 14 8 34 19 NE 1024,1 13 26 0,0
14.04.2019 16:00:00 7,9 -1,4 11,1 8,9 9,9 18 10 34 19 ENE 1023,1 9 38 0,0
14.04.2019 15:00:00 8,4 0,1 10,0 8,9 9,9 18 10 32 17 ENE 1023,5 3,9 43 0,0
14.04.2019 14:00:00 7,8 -0,2 10,1 9,0 9,9 20 11 33 18 NE 1023,6 12 21 0,0
14.04.2019 13:00:00 7,9 -0,1 8,1 9,0 9,9 16 9 29 16 NE 1023,8 12 39 0,0
14.04.2019 12:00:00 5,7 -1,2 8,9 9,1 9,9 15 8 25 13 NE 1024,2 16 27 0,0
14.04.2019 11:00:00 5,9 -0,8 11,6 9,1 9,9 14 8 20 11 NE 1024,2 6 60 0,0
14.04.2019 10:00:00 4,0 0,3 8,3 9,2 9,9 12 7 24 13 NE 1024,2 9 60 0,0
14.04.2019 09:00:00 1,5 0,0 -0,9 9,2 9,9 4 2 11 6 N 1024,0 7 60 0,0
14.04.2019 08:00:00 -2,2 -3,0 -7,8 9,3 9,9 3 2 6 3 NNW 1024,1 6 16 0,0
14.04.2019 07:00:00 -2,6 -3,6 -8,3 9,3 9,9 0 0 5 3 N 1023,8 7 0 0,0
14.04.2019 06:00:00 -2,8 -3,6 -8,4 9,3 9,9 5 3 10 5 W 1023,8 6 0 0,0
14.04.2019 05:00:00 -3,0 -4,3 -7,7 9,4 9,9 8 4 11 6 NW 1023,8 6 0 0,0
14.04.2019 04:00:00 -2,2 -4,1 -6,0 9,4 9,9 8 5 11 6 WNW 1023,7 8 0 0,0
14.04.2019 03:00:00 -0,8 -2,8 -4,6 9,4 9,9 6 3 13 7 W 1023,8 11 0 0,0
14.04.2019 02:00:00 0,0 -2,1 -3,6 9,4 9,9 5 3 17 9 W 1024,2 11 0 0,0
14.04.2019 01:00:00 0,3 -1,9 -1,6 9,4 9,9 11 6 17 9 NNE 1024,2 10 0 0,0
14.04.2019 00:00:00 0,1 -2,3 -1,7 9,4 9,9 13 7 16 9 N 1024,3 14 0 0,0
13.04.2019 23:00:00 2,0 -2,3 0,1 9,4 9,9 13 7 23 13 N 1024,4 19 0 0,0
13.04.2019 22:00:00 2,6 -2,5 -0,6 9,4 9,9 13 7 23 12 N 1024,4 21 0 0,0
13.04.2019 21:00:00 4,2 -3,1 1,7 9,3 10,0 13 7 27 15 N 1024,2 20 0 0,0
13.04.2019 20:00:00 6,8 -3,5 6,6 9,3 10,0 20 11 32 18 N 1024,1 27 24 0,0
13.04.2019 19:00:00 8,1 -4,1 9,8 9,3 9,9 16 8 33 18 NNE 1023,7 17 57 0,0
13.04.2019 18:00:00 8,8 -4,1 7,1 9,3 10,0 14 7 34 18 N 1023,8 10 43 0,0
13.04.2019 17:00:00 8,1 -4,7 8,8 9,3 10,0 22 12 36 19 NNE 1023,9 27 39 0,0
13.04.2019 16:00:00 9,0 -3,9 10,3 9,3 10,0 17 9 46 25 NE 1024,5 19 48 0,0
13.04.2019 15:00:00 8,8 -2,8 10,1 9,3 10,0 18 10 35 19 NNE 1024,9 20 38 0,0
13.04.2019 14:00:00 8,1 -2,6 8,9 9,4 10,0 19 10 34 19 NE 1025,0 18 44 0,0
13.04.2019 13:00:00 7,0 -3,0 10,6 9,4 10,0 22 12 40 22 NNE 1025,4 19 45 0,0
13.04.2019 12:00:00 6,9 -1,5 9,4 9,4 10,0 19 11 32 18 NNE 1025,8 9 58 0,0
13.04.2019 11:00:00 6,1 -0,2 10,1 9,5 10,0 20 11 32 17 NE 1025,9 8 60 0,0
13.04.2019 10:00:00 4,5 -0,3 6,7 9,5 10,0 17 9 34 18 NNE 1025,9 8 60 0,0
13.04.2019 09:00:00 2,6 -1,0 1,7 9,6 10,0 14 8 23 13 NNE 1025,9 7 60 0,0
13.04.2019 08:00:00 0,5 -1,9 -2,3 9,6 10,0 12 6 17 9 N 1025,7 10 14 0,0
13.04.2019 07:00:00 -1,1 -2,8 -2,4 9,6 9,9 13 7 17 9 N 1025,5 9 0 0,0
13.04.2019 06:00:00 -0,6 -3,0 -1,8 9,7 10,0 13 7 19 11 N 1025,4 11 0 0,0
13.04.2019 05:00:00 -0,3 -2,7 -1,5 9,7 10,0 14 8 19 10 N 1025,1 12 0 0,0
13.04.2019 04:00:00 0,5 -2,2 -1,5 9,7 10,0 14 8 18 10 N 1025,0 13 0 0,0

tt = Température de l'air
td = dewpoint
tt 5cm = Température de l'air 5cm
tt -20cm = Température de l'air -20cm
tt -100cm = Température de l'air -100cm
ff = Vitesse du vent
fx = gusts
dd = Direction du vent
ppp = reduced air pressure
vv = visibility
sd = Ensoleillement
rr = Quantités de précipitations

stations d'obs. à proximité